Weather in Winnipeg

Canada     49°53′16″N   97°08′03″W
temp.,
°C
wind,
m/s
gust,
m/s
humid.,
%
clouds,
%
prec.,
mm/h
press.,
hPa
HPBL,
m
17 april, sat
sat1701:00+2n228654 0.0 102320
04:00+2nw229098 0.0 102210
07:00+3wnw2492100 0.1 1021117
10:00+6nw466460 0.1 1021756
13:00+9wnw45517 0.1 10191306
16:00+12wnw454411 0.0 10171635
19:00+11nw354841 0.0 1016958
22:00+9e2266100 0.0 101556
18 april, sun
sun1801:00+7ne2273100 0.1 101476
04:00+4nne6795100 4.3 1013603
07:00+1n81396100 7.3 1015646
10:00+2n9127387 0.4 10171145
13:00+2n81167100 0.4 10191360
16:00+1n91161100 0.1 10201451
19:000n81064100 0.3 10221404
22:00−2nnw697138 0.1 1024901
19 april, mon
mon1901:00−3nnw5107282 0.1 1023621
04:00−3nnw58715 0.0 1023527
07:00−4nnw48715 0.0 1024715
10:00−1nnw6847100 0.0 10241725
13:00+1nnw5741100 0.1 10232092
16:00+2nw5644100 0.1 10221810
19:00+1nnw5649100 0.3 10221440
22:00−3ene249075 0.1 1024148
20 april, tue
tue2001:00−3nnw238095 0.1 1024103
04:00−3nnw36685 0.0 1024293
07:00−4nnw37735 0.0 1025344
10:000n4650100 0.0 10251565
13:00+2n4542100 0.2 10242028
16:00+2nnw5658100 0.6 10241307
19:00+1nne4560100 1.3 10241110
22:00−2ene118039 0.1 102530
21 april, wed
wed2101:00−3nnw24694 0.1 1025143
04:00−4nnw23630 0.0 1025143
07:00−4nw23605 0.0 1026157
10:00+1nw34395 0.0 1025793
13:00+5w34376 0.0 10231224
16:00+8w45355 0.0 10211307
19:00+8w35375 0.0 10191297
22:00+5sw36575 0.0 101987